When you browse on this site, cookies collect data to enhance your experience and personalize the content and advertising you see.
Visit our Privacy Policy to learn more. By continuing to use the site, you agree to this use of cookies and data.
  • Em Portugal
  • Lista de países
  • Para 7 dias
  • Temperatura da água
  • Mapas de satélite
  • Mapa do tempo
  • Widgets de tempo
  • user-avatar
    Iniciar Sessão

    Previsão horária em Sliven

    Hoje, 20 Janeiro, Domingo

    Tempo Temperatura Precipitação Vento Pressão Humidade
    00:00 +2°C° 0.3 mm 3 m/s 735 mmHg 95%
    01:00 +2°C° 0.3 mm 3 m/s 734 mmHg 96%
    02:00 +3°C° 0 mm 2 m/s 734 mmHg 96%
    03:00 +4°C° 0.2 mm 2 m/s 734 mmHg 97%
    04:00 +4°C° 0.2 mm 2 m/s 734 mmHg 97%
    05:00 +4°C° 0.2 mm 2 m/s 733 mmHg 97%
    06:00 +4°C° 0.1 mm 2 m/s 733 mmHg 97%
    07:00 +4°C° 0.1 mm 2 m/s 733 mmHg 97%
    08:00 +5°C° 0 mm 1 m/s 733 mmHg 97%
    09:00 +5°C° 0.1 mm 1 m/s 733 mmHg 97%
    10:00 +6°C° 0.1 mm 1 m/s 733 mmHg 96%
    11:00 +6°C° 0.1 mm 1 m/s 732 mmHg 95%
    12:00 +6°C° 0.1 mm 1 m/s 732 mmHg 95%
    13:00 +7°C° 0.1 mm 1 m/s 732 mmHg 95%
    14:00 +7°C° 0.1 mm 1 m/s 731 mmHg 95%
    15:00 +7°C° 0.1 mm 1 m/s 731 mmHg 96%
    16:00 +7°C° 0.1 mm 1 m/s 730 mmHg 97%
    17:00 +7°C° 0.1 mm 1 m/s 730 mmHg 97%
    18:00 +6°C° 0 mm 1 m/s 730 mmHg 97%
    19:00 +6°C° 0 mm 1 m/s 730 mmHg 97%
    20:00 +5°C° 0 mm 0 m/s 730 mmHg 97%
    21:00 +6°C° 0.1 mm 1 m/s 730 mmHg 97%
    22:00 +6°C° 0.1 mm 1 m/s 730 mmHg 96%
    23:00 +6°C° 0.1 mm 1 m/s 731 mmHg 96%

    Amanhã, 21 Janeiro, Segunda-feira

    Tempo Temperatura Precipitação Vento Pressão Humidade
    00:00 +5°C° 0 mm 1 m/s 731 mmHg 95%
    01:00 +5°C° 0 mm 1 m/s 731 mmHg 95%
    02:00 +4°C° 0 mm 2 m/s 731 mmHg 94%
    03:00 +3°C° 0 mm 2 m/s 731 mmHg 93%
    04:00 +3°C° 0 mm 2 m/s 731 mmHg 93%
    05:00 +2°C° 0 mm 2 m/s 731 mmHg 92%
    06:00 +2°C° 0 mm 2 m/s 731 mmHg 91%
    07:00 +2°C° 0 mm 2 m/s 731 mmHg 90%
    08:00 +1°C° 0 mm 2 m/s 732 mmHg 90%
    09:00 +3°C° 0 mm 2 m/s 732 mmHg 84%
    10:00 +4°C° 0 mm 2 m/s 733 mmHg 78%
    11:00 +6°C° 0 mm 2 m/s 733 mmHg 72%
    12:00 +6°C° 0 mm 2 m/s 733 mmHg 70%
    13:00 +7°C° 0 mm 2 m/s 733 mmHg 67%
    14:00 +8°C° 0 mm 1 m/s 733 mmHg 65%
    15:00 +6°C° 0 mm 2 m/s 734 mmHg 70%
    16:00 +5°C° 0 mm 2 m/s 734 mmHg 75%
    17:00 +4°C° 0 mm 2 m/s 734 mmHg 79%
    18:00 +4°C° 0 mm 2 m/s 734 mmHg 82%
    19:00 +3°C° 0 mm 2 m/s 734 mmHg 85%
    20:00 +2°C° 0 mm 2 m/s 735 mmHg 89%
    21:00 +2°C° 0 mm 2 m/s 735 mmHg 88%
    22:00 +2°C° 0 mm 2 m/s 735 mmHg 88%
    23:00 +1°C° 0 mm 2 m/s 735 mmHg 88%

    Depois de amanhã, 22 Janeiro, Terça-feira

    Tempo Temperatura Precipitação Vento Pressão Humidade
    00:00 +1°C° 0 mm 2 m/s 735 mmHg 89%
    01:00 +1°C° 0 mm 2 m/s 735 mmHg 90%
    02:00 -1°C° 0 mm 2 m/s 735 mmHg 91%
    03:00 -1°C° 0 mm 2 m/s 735 mmHg 92%
    04:00 -1°C° 0 mm 2 m/s 734 mmHg 92%
    05:00 +1°C° 0 mm 2 m/s 734 mmHg 92%
    06:00 +1°C° 0 mm 2 m/s 734 mmHg 92%
    07:00 +1°C° 0 mm 2 m/s 734 mmHg 93%
    08:00 +1°C° 0 mm 2 m/s 734 mmHg 93%
    09:00 +1°C° 0 mm 2 m/s 734 mmHg 92%
    10:00 +2°C° 0 mm 2 m/s 734 mmHg 91%
    11:00 +3°C° 0 mm 2 m/s 734 mmHg 90%
    12:00 +3°C° 0 mm 2 m/s 733 mmHg 88%
    13:00 +4°C° 0 mm 2 m/s 733 mmHg 86%
    14:00 +4°C° 0 mm 2 m/s 732 mmHg 84%
    15:00 +4°C° 0 mm 2 m/s 731 mmHg 86%
    16:00 +4°C° 0 mm 2 m/s 731 mmHg 88%
    17:00 +4°C° 0 mm 2 m/s 731 mmHg 91%
    18:00 +4°C° 0.1 mm 2 m/s 730 mmHg 92%
    19:00 +2°C° 0.1 mm 3 m/s 730 mmHg 93%
    20:00 +2°C° 0.1 mm 3 m/s 730 mmHg 94%
    21:00 +2°C° 0.1 mm 3 m/s 729 mmHg 95%
    22:00 +2°C° 0.1 mm 3 m/s 729 mmHg 95%
    23:00 +3°C° 0.1 mm 3 m/s 729 mmHg 95%

    23 Janeiro, Quarta-feira

    Tempo Temperatura Precipitação Vento Pressão Humidade
    00:00 +3°C° 0.1 mm 3 m/s 728 mmHg 95%
    01:00 +3°C° 0.1 mm 3 m/s 727 mmHg 95%
    02:00 +3°C° 0.1 mm 3 m/s 727 mmHg 96%
    03:00 +3°C° 0.9 mm 3 m/s 726 mmHg 96%
    04:00 +3°C° 0.9 mm 3 m/s 725 mmHg 97%
    05:00 +3°C° 0.9 mm 3 m/s 725 mmHg 97%
    06:00 +3°C° 1.6 mm 3 m/s 724 mmHg 97%
    07:00 +4°C° 1.6 mm 3 m/s 724 mmHg 96%
    08:00 +4°C° 1.6 mm 3 m/s 724 mmHg 96%
    09:00 +5°C° 0.5 mm 3 m/s 724 mmHg 95%
    10:00 +6°C° 0.5 mm 4 m/s 724 mmHg 93%
    11:00 +7°C° 0.5 mm 5 m/s 723 mmHg 92%
    12:00 +8°C° 0.1 mm 5 m/s 723 mmHg 85%
    13:00 +9°C° 0.1 mm 5 m/s 723 mmHg 78%
    14:00 +11°C° 0.1 mm 6 m/s 723 mmHg 71%
    15:00 +10°C° 0 mm 5 m/s 723 mmHg 73%
    16:00 +9°C° 0 mm 5 m/s 723 mmHg 74%
    17:00 +8°C° 0 mm 4 m/s 723 mmHg 76%
    18:00 +8°C° 0 mm 4 m/s 723 mmHg 80%
    19:00 +7°C° 0 mm 4 m/s 723 mmHg 84%
    20:00 +6°C° 0 mm 4 m/s 724 mmHg 88%
    21:00 +7°C° 0 mm 3 m/s 724 mmHg 90%
    22:00 +5°C° 0 mm 3 m/s 724 mmHg 92%
    23:00 +6°C° 0 mm 2 m/s 724 mmHg 94%

    24 Janeiro, Quinta-feira

    Tempo Temperatura Precipitação Vento Pressão Humidade
    00:00 +6°C° 0 mm 2 m/s 724 mmHg 95%
    01:00 +7°C° 0 mm 2 m/s 724 mmHg 96%
    02:00 +7°C° 0 mm 3 m/s 724 mmHg 96%
    03:00 +7°C° 0.1 mm 3 m/s 724 mmHg 96%
    04:00 +7°C° 0.1 mm 3 m/s 723 mmHg 97%
    05:00 +7°C° 0.1 mm 2 m/s 723 mmHg 97%
    06:00 +7°C° 0.2 mm 3 m/s 723 mmHg 97%
    07:00 +7°C° 0.2 mm 3 m/s 723 mmHg 97%
    08:00 +6°C° 0.2 mm 4 m/s 723 mmHg 96%
    09:00 +7°C° 0.1 mm 4 m/s 723 mmHg 94%
    10:00 +7°C° 0.1 mm 4 m/s 723 mmHg 91%
    11:00 +8°C° 0.1 mm 4 m/s 723 mmHg 88%
    12:00 +9°C° 0 mm 5 m/s 722 mmHg 81%
    13:00 +10°C° 0 mm 5 m/s 721 mmHg 74%
    14:00 +12°C° 0 mm 5 m/s 721 mmHg 67%
    15:00 +10°C° 0 mm 5 m/s 720 mmHg 72%
    16:00 +8°C° 0 mm 4 m/s 720 mmHg 77%
    17:00 +7°C° 0 mm 4 m/s 719 mmHg 82%
    18:00 +7°C° 0 mm 4 m/s 719 mmHg 85%
    19:00 +6°C° 0 mm 4 m/s 719 mmHg 88%
    20:00 +6°C° 0 mm 4 m/s 719 mmHg 91%
    21:00 +5°C° 0 mm 4 m/s 719 mmHg 91%
    22:00 +5°C° 0 mm 4 m/s 718 mmHg 91%
    23:00 +5°C° 0 mm 4 m/s 718 mmHg 92%

    25 Janeiro, Sexta-feira

    Tempo Temperatura Precipitação Vento Pressão Humidade
    00:00 +5°C° 0.1 mm 4 m/s 718 mmHg 92%
    01:00 +5°C° 0.1 mm 4 m/s 718 mmHg 93%
    02:00 +5°C° 0.1 mm 4 m/s 718 mmHg 94%
    03:00 +5°C° 0.3 mm 3 m/s 718 mmHg 95%
    04:00 +5°C° 0.3 mm 3 m/s 717 mmHg 95%
    05:00 +5°C° 0.3 mm 3 m/s 717 mmHg 96%
    06:00 +7°C° 0.1 mm 3 m/s 717 mmHg 96%
    07:00 +7°C° 0.1 mm 3 m/s 717 mmHg 96%
    08:00 +7°C° 0.1 mm 3 m/s 717 mmHg 96%
    09:00 +6°C° 0.1 mm 4 m/s 718 mmHg 91%
    10:00 +7°C° 0.1 mm 4 m/s 718 mmHg 86%
    11:00 +8°C° 0.1 mm 5 m/s 718 mmHg 81%
    12:00 +8°C° 0.2 mm 5 m/s 718 mmHg 77%
    13:00 +8°C° 0.2 mm 5 m/s 718 mmHg 73%
    14:00 +9°C° 0.2 mm 5 m/s 718 mmHg 69%
    15:00 +8°C° 0.5 mm 4 m/s 718 mmHg 74%
    16:00 +9°C° 0.5 mm 3 m/s 718 mmHg 78%
    17:00 +8°C° 0.5 mm 2 m/s 718 mmHg 83%
    18:00 +7°C° 0.1 mm 2 m/s 718 mmHg 85%
    19:00 +7°C° 0.1 mm 2 m/s 719 mmHg 87%
    20:00 +6°C° 0.1 mm 2 m/s 719 mmHg 90%
    21:00 +6°C° 0 mm 2 m/s 719 mmHg 90%
    22:00 +5°C° 0 mm 2 m/s 720 mmHg 91%
    23:00 +5°C° 0 mm 2 m/s 720 mmHg 91%
    Mostrar mais